EW5637 Weather Reports


Display with metric or nautical units.
time (UTC)temp
F
wind
direction
speed
MPH
gust
MPH
rain 1hr
in
rain 24hr
in
rain mn
in
humidity
%
barometer
mb
20260906091041 59 324 5.0 8.0 0.00 0.00 0.00 90 1014.0
20260906090541 59 346 3.0 5.0 0.00 0.00 0.00 91 1014.1
20260906090100 59 5 3.0 4.0 0.00 0.00 0.00 91 1014.0
20260906085540 58 5 2.0 4.0 0.00 0.00 0.00 91 1014.0
20260906085040 58 5 2.0 4.0 0.00 0.00 0.00 91 1014.0
20260906084557 58 5 2.0 3.0 0.00 0.00 0.00 91 1014.0
20260906084041 58 5 0.0 2.0 0.00 0.00 0.00 92 1014.0
20260906083541 58 5 1.0 3.0 0.00 0.00 0.00 92 1014.0
20260906083057 58 5 1.0 4.0 0.00 0.00 0.00 92 1013.9
20260906082537 58 5 2.0 4.0 0.00 0.00 0.00 91 1014.0
20260906082043 58 5 2.0 4.0 0.00 0.00 0.00 91 1013.9
20260906081553 58 5 2.0 4.0 0.00 0.00 0.00 90 1013.8
20260906081043 58 5 3.0 4.0 0.00 0.00 0.00 91 1013.8
20260906080542 59 5 0.0 2.0 0.00 0.00 0.00 90 1013.8
20260906080110 59 0 0.0 1.0 0.00 0.00 0.00 91 1013.8
20260906075543 59 0 0.0 1.0 0.00 0.00 0.00 91 1013.9
20260906075043 59 0 0.0 2.0 0.00 0.00 0.00 91 1013.8
20260906074600 59 0 0.0 2.0 0.00 0.00 0.00 91 1013.8
20260906074040 59 5 0.0 2.0 0.00 0.00 0.00 91 1013.9
20260906073543 59 0 0.0 3.0 0.00 0.00 0.00 91 1013.8
20260906073054 59 0 1.0 3.0 0.00 0.00 0.00 91 1013.8
20260906072542 59 5 1.0 3.0 0.00 0.00 0.00 91 1013.7
20260906072042 59 5 1.0 3.0 0.00 0.00 0.00 91 1013.6
20260906071601 59 5 0.0 3.0 0.00 0.00 0.00 92 1013.6
20260906071042 59 0 1.0 3.0 0.00 0.00 0.00 91 1013.7
20260906070542 59 5 1.0 3.0 0.00 0.00 0.00 92 1013.6
20260906070104 58 0 0.0 3.0 0.00 0.00 0.00 92 1013.7
20260906065543 58 5 1.0 3.0 0.00 0.00 0.00 91 1013.8
20260906065042 58 5 2.0 3.0 0.00 0.00 0.00 91 1013.8
20260906064606 59 5 0.0 2.0 0.00 0.00 0.00 91 1013.7
20260906064043 59 0 0.0 2.0 0.00 0.00 0.00 92 1013.7
20260906063542 59 5 1.0 2.0 0.00 0.00 0.00 92 1013.6
20260906063105 58 0 0.0 0.0 0.00 0.00 0.00 92 1013.7
20260906062545 58 0 0.0 0.0 0.00 0.00 0.00 91 1013.7
20260906062042 58 0 0.0 0.0 0.00 0.00 0.00 91 1013.7
20260906061558 59 0 0.0 0.0 0.00 0.00 0.00 91 1013.9
20260906061042 59 0 0.0 0.0 0.00 0.00 0.00 91 1013.8
20260906060542 59 0 0.0 0.0 0.00 0.00 0.00 91 1013.8
20260906060104 59 0 0.0 0.0 0.00 0.00 0.00 91 1013.8
20260906055542 59 0 0.0 0.0 0.00 0.00 0.00 92 1013.8
20260906055043 59 0 0.0 0.0 0.00 0.00 0.00 92 1013.7
20260906054556 59 0 0.0 2.0 0.00 0.00 0.00 91 1013.9
20260906054044 59 0 0.0 3.0 0.00 0.00 0.00 91 1013.9
20260906053543 59 0 1.0 3.0 0.00 0.00 0.00 91 1013.9
20260906053055 59 5 1.0 3.0 0.00 0.00 0.00 91 1013.9
20260906052542 59 5 2.0 4.0 0.00 0.00 0.00 90 1013.9
20260906052043 60 5 2.0 4.0 0.00 0.00 0.00 92 1014.0
20260906051602 59 5 1.0 3.0 0.00 0.00 0.00 92 1013.9
20260906051038 59 5 2.0 3.0 0.00 0.00 0.00 92 1014.0
20260906050541 59 5 1.0 3.0 0.00 0.00 0.00 91 1014.0
20260906045543 60 5 1.0 4.0 0.00 0.00 0.00 92 1014.0
20260906045045 60 5 1.0 4.0 0.00 0.00 0.00 93 1014.0
20260906044558 59 5 2.0 4.0 0.00 0.00 0.00 92 1014.0
20260906044041 59 5 2.0 4.0 0.00 0.00 0.00 92 1014.0
20260906043540 59 5 1.0 4.0 0.00 0.00 0.00 93 1014.0
20260906043053 59 5 1.0 4.0 0.00 0.00 0.00 93 1014.0
20260906042540 59 5 2.0 3.0 0.00 0.00 0.00 93 1014.0
20260906042040 58 5 0.0 0.0 0.00 0.00 0.00 92 1013.9
20260906041557 58 0 0.0 0.0 0.00 0.00 0.00 91 1013.9
20260906041041 59 0 0.0 0.0 0.00 0.00 0.00 91 1014.0
20260906040540 59 0 0.0 0.0 0.00 0.00 0.00 92 1014.1
20260906040052 59 0 0.0 0.0 0.00 0.00 0.00 92 1014.0
20260906035537 59 0 0.0 0.0 0.00 0.00 0.00 92 1014.1
20260906035041 59 0 0.0 0.0 0.00 0.00 0.00 92 1014.0
20260906034555 59 0 0.0 0.0 0.00 0.00 0.00 91 1014.1
20260906034040 60 0 0.0 2.0 0.00 0.00 0.00 91 1014.0
20260906033538 60 0 0.0 2.0 0.00 0.00 0.00 91 1013.9
20260906033056 60 5 1.0 2.0 0.00 0.00 0.00 92 1013.8
20260906032537 60 5 0.0 2.0 0.00 0.00 0.00 92 1013.8
20260906032037 60 0 0.0 1.0 0.00 0.00 0.00 92 1013.7
20260906031600 60 0 0.0 2.0 0.00 0.00 0.00 92 1013.9
20260906031041 60 0 0.0 2.0 0.00 0.00 0.00 92 1013.8
20260906030541 60 5 1.0 2.0 0.00 0.00 0.00 91 1013.8
20260906025541 61 0 0.0 0.0 0.00 0.00 0.00 91 1013.7
20260906025039 61 0 0.0 0.0 0.00 0.00 0.00 92 1013.8
20260906024616 61 0 0.0 0.0 0.00 0.00 0.00 91 1013.8
20260906024041 62 0 0.0 0.0 0.00 0.00 0.00 91 1013.8
20260906023541 62 0 0.0 0.0 0.00 0.00 0.00 92 1013.7
20260906023052 62 0 0.0 2.0 0.00 0.00 0.00 91 1013.8
20260906022542 62 0 0.0 2.0 0.00 0.00 0.00 91 1013.7
20260906022042 62 0 1.0 2.0 0.00 0.00 0.00 90 1013.7
20260906021551 62 5 0.0 2.0 0.00 0.00 0.00 91 1013.6
20260906021041 62 0 0.0 2.0 0.00 0.00 0.00 90 1013.8
20260906020540 63 0 0.0 2.0 0.00 0.00 0.00 90 1013.6
20260906015540 63 0 0.0 1.0 0.00 0.00 0.00 91 1013.5
20260906015038 63 0 0.0 1.0 0.00 0.00 0.00 91 1013.5
20260906014602 63 0 0.0 1.0 0.00 0.00 0.00 91 1013.5
20260906014040 63 0 0.0 3.0 0.00 0.00 0.00 91 1013.4
20260906013540 63 0 0.0 3.0 0.00 0.00 0.00 91 1013.4
20260906013052 63 5 1.0 3.0 0.00 0.00 0.00 90 1013.3
20260906012540 63 5 1.0 3.0 0.00 0.00 0.00 90 1013.1
20260906012040 63 5 0.0 3.0 0.00 0.00 0.00 90 1013.0
20260906011556 63 0 0.0 2.0 0.00 0.00 0.00 91 1013.1
20260906011040 63 5 1.0 2.0 0.00 0.00 0.00 91 1013.1
20260906010540 63 5 1.0 2.0 0.00 0.00 0.00 91 1013.1
20260906010108 63 5 1.0 3.0 0.00 0.00 0.00 89 1013.1
20260906005541 64 5 2.0 3.0 0.00 0.00 0.00 89 1013.0
20260906005038 64 5 1.0 3.0 0.00 0.00 0.00 88 1013.0
20260906004553 64 5 1.0 2.0 0.00 0.00 0.00 89 1013.1
20260906004041 65 5 1.0 2.0 0.00 0.00 0.00 88 1013.0
20260906003541 65 5 0.0 2.0 0.00 0.00 0.00 88 1013.0
20260906003110 66 0 0.0 2.0 0.00 0.00 0.00 89 1012.9
20260906002541 66 0 0.0 2.0 0.00 0.00 0.00 89 1012.9
20260906002041 66 0 0.0 3.0 0.00 0.00 0.00 89 1012.9
20260906001555 66 5 1.0 3.0 0.00 0.00 0.00 89 1012.9
20260906001040 66 0 0.0 3.0 0.00 0.00 0.00 88 1012.8
20260906000543 66 5 0.0 3.0 0.00 0.00 0.00 87 1012.8
20260906000109 67 5 1.0 3.0 0.00 0.00 0.00 87 1012.7
20260905235541 67 5 1.0 3.0 0.00 0.00 0.00 86 1012.7
20260905235041 67 5 2.0 3.0 0.00 0.00 0.00 84 1012.7
20260905234606 68 5 1.0 3.0 0.00 0.00 0.00 84 1012.7
20260905234043 69 5 1.0 3.0 0.00 0.00 0.00 83 1012.5
20260905233542 69 5 1.0 2.0 0.00 0.00 0.00 82 1012.5
20260905233053 69 5 1.0 2.0 0.00 0.00 0.00 82 1012.4
20260905232540 70 0 0.0 2.0 0.00 0.00 0.00 81 1012.4
20260905232041 71 5 1.0 3.0 0.00 0.00 0.00 79 1012.4
20260905231555 72 5 1.0 4.0 0.00 0.00 0.00 78 1012.4
20260905231040 72 5 2.0 4.0 0.00 0.00 0.00 77 1012.3
20260905230539 73 44 2.0 3.0 0.00 0.00 0.00 76 1012.2
20260905230111 74 44 1.0 4.0 0.00 0.00 0.00 75 1012.3
20260905225540 74 46 1.0 4.0 0.00 0.00 0.00 74 1012.2
20260905225043 74 47 2.0 6.0 0.00 0.00 0.00 72 1012.1
20260905224605 75 48 3.0 6.0 0.00 0.00 0.00 72 1012.1
20260905224042 75 53 3.0 6.0 0.00 0.00 0.00 71 1012.1
20260905223542 75 40 3.0 6.0 0.00 0.00 0.00 70 1012.0
20260905223105 76 47 3.0 8.0 0.00 0.00 0.00 71 1011.9
20260905222544 76 17 2.0 9.0 0.00 0.00 0.00 71 1011.9
20260905222043 76 46 4.0 10.0 0.00 0.00 0.00 69 1011.9
20260905221603 76 38 5.0 14.0 0.00 0.00 0.00 69 1012.0
20260905221045 76 33 4.0 14.0 0.00 0.00 0.00 69 1012.1
20260905220544 76 340 6.0 14.0 0.00 0.00 0.00 68 1012.0
20260905220106 76 5 6.0 10.0 0.00 0.00 0.00 67 1011.8
20260905215543 76 5 5.0 10.0 0.00 0.00 0.00 67 1011.6
20260905215047 76 54 4.0 8.0 0.00 0.00 0.00 70 1011.6
20260905214558 75 329 3.0 10.0 0.00 0.00 0.00 71 1011.7
20260905214043 75 360 6.0 13.0 0.00 0.00 0.00 68 1011.7
20260905213546 76 11 8.0 13.0 0.00 0.00 0.00 67 1011.6
20260905213057 76 22 6.0 12.0 0.00 0.00 0.00 67 1011.6
20260905212542 77 336 7.0 11.0 0.00 0.00 0.00 67 1011.7
20260905212042 77 360 6.0 12.0 0.00 0.00 0.00 68 1011.4
20260905211606 78 83 6.0 12.0 0.00 0.00 0.00 67 1011.4
20260905211041 78 41 7.0 13.0 0.00 0.00 0.00 65 1011.3
20260905210546 77 28 7.0 13.0 0.00 0.00 0.00 66 1011.2
20260905210058 77 17 5.0 15.0 0.00 0.00 0.00 66 1011.3
20260905205544 76 350 7.0 15.0 0.00 0.00 0.00 66 1011.4
20260905205044 77 30 8.0 14.0 0.00 0.00 0.00 65 1011.4
20260905204600 77 26 4.0 9.0 0.00 0.00 0.00 70 1011.4
20260905204045 76 350 3.0 10.0 0.00 0.00 0.00 70 1011.4
20260905203543 76 331 5.0 11.0 0.00 0.00 0.00 70 1011.4
20260905203100 76 350 7.0 11.0 0.00 0.00 0.00 68 1011.4
20260905202542 77 350 7.0 13.0 0.00 0.00 0.00 68 1011.4
20260905202042 77 323 6.0 13.0 0.00 0.00 0.00 67 1011.3
20260905201554 78 316 4.0 8.0 0.00 0.00 0.00 69 1011.4
20260905201044 78 319 4.0 8.0 0.00 0.00 0.00 69 1011.3
20260905200542 78 300 3.0 8.0 0.00 0.00 0.00 68 1011.4
20260905200100 78 24 3.0 13.0 0.00 0.00 0.00 68 1011.4
20260905195541 78 350 6.0 13.0 0.00 0.00 0.00 69 1011.6
20260905195040 77 319 5.0 10.0 0.00 0.00 0.00 72 1011.7
20260905194601 76 297 4.0 14.0 0.00 0.00 0.00 74 1011.6
20260905194043 75 321 7.0 16.0 0.00 0.00 0.00 72 1011.6
20260905193540 76 321 10.0 16.0 0.00 0.00 0.00 70 1011.7
20260905193107 76 298 10.0 16.0 0.00 0.00 0.00 68 1011.8
20260905192541 77 338 7.0 10.0 0.00 0.00 0.00 70 1011.7
20260905192040 77 34 3.0 8.0 0.00 0.00 0.00 71 1011.8
20260905191558 77 9 1.0 8.0 0.00 0.00 0.00 72 1011.9
20260905191040 76 318 5.0 8.0 0.00 0.00 0.00 71 1011.9
20260905190542 76 279 3.0 14.0 0.00 0.00 0.00 69 1011.9
20260905190052 76 295 6.0 14.0 0.00 0.00 0.00 71 1012.0
20260905185540 77 310 8.0 14.0 0.00 0.00 0.00 70 1012.0
20260905185041 77 318 4.0 10.0 0.00 0.00 0.00 72 1012.1
20260905184611 77 294 4.0 9.0 0.00 0.00 0.00 71 1012.1
20260905184042 76 13 4.0 9.0 0.00 0.00 0.00 71 1012.2
20260905183539 75 360 5.0 9.0 0.00 0.00 0.00 72 1012.2
20260905183058 76 330 4.0 9.0 0.00 0.00 0.00 75 1012.3
20260905182540 76 9 6.0 9.0 0.00 0.00 0.00 72 1012.3
20260905182042 76 17 4.0 8.0 0.00 0.00 0.00 72 1012.3
20260905181559 76 26 1.0 8.0 0.00 0.00 0.00 72 1012.4
20260905181042 76 9 3.0 9.0 0.00 0.00 0.00 72 1012.4
20260905180543 76 320 4.0 9.0 0.00 0.00 0.00 72 1012.4
20260905180059 76 347 4.0 11.0 0.00 0.00 0.00 71 1012.4
20260905175542 76 16 5.0 11.0 0.00 0.00 0.00 73 1012.2
20260905175041 77 20 7.0 12.0 0.00 0.00 0.00 71 1012.3
20260905174556 77 342 7.0 12.0 0.00 0.00 0.00 72 1012.3
20260905174040 77 349 4.0 10.0 0.00 0.00 0.00 75 1012.3
20260905173542 76 29 5.0 10.0 0.00 0.00 0.00 71 1012.5
20260905173056 76 322 5.0 10.0 0.00 0.00 0.00 74 1012.7
20260905172541 76 22 5.0 13.0 0.00 0.00 0.00 73 1012.8
20260905172040 76 340 5.0 13.0 0.00 0.00 0.00 72 1012.8
20260905171555 76 5 6.0 13.0 0.00 0.00 0.00 71 1012.9
20260905171041 76 346 6.0 11.0 0.00 0.00 0.00 72 1013.0
20260905170544 76 12 5.0 11.0 0.00 0.00 0.00 70 1012.9
20260905170105 77 321 2.0 10.0 0.00 0.00 0.00 69 1013.1
20260905165544 77 314 7.0 10.0 0.00 0.00 0.00 68 1013.1
20260905165040 77 338 2.0 7.0 0.00 0.00 0.00 72 1013.1
20260905164555 76 100 4.0 7.0 0.00 0.00 0.00 72 1013.3
20260905164041 76 59 3.0 7.0 0.00 0.00 0.00 77 1013.3
20260905163540 76 34 0.0 5.0 0.00 0.00 0.00 73 1013.3
20260905163053 75 0 1.0 10.0 0.00 0.00 0.00 74 1013.3
20260905162543 75 0 4.0 10.0 0.00 0.00 0.00 72 1013.3
20260905162041 75 88 2.0 7.0 0.00 0.00 0.00 74 1013.3
20260905161604 75 0 0.0 6.0 0.00 0.00 0.00 73 1013.4
20260905161040 75 350 1.0 4.0 0.00 0.00 0.00 74 1013.5
20260905160541 74 239 0.0 4.0 0.00 0.00 0.00 74 1013.7
20260905160104 74 5 2.0 4.0 0.00 0.00 0.00 76 1013.7
20260905155544 74 320 0.0 4.0 0.00 0.00 0.00 76 1013.9
20260905155042 73 0 0.0 4.0 0.00 0.00 0.00 74 1013.9
20260905154600 74 320 1.0 4.0 0.00 0.00 0.00 75 1014.0
20260905154041 74 33 0.0 4.0 0.00 0.00 0.00 75 1013.9
20260905153546 73 0 0.0 2.0 0.00 0.00 0.00 75 1013.9
20260905153104 73 0 0.0 0.0 0.00 0.00 0.00 76 1014.0
20260905152540 73 0 0.0 0.0 0.00 0.00 0.00 76 1013.9
20260905152040 72 0 0.0 0.0 0.00 0.00 0.00 78 1014.1
20260905151601 72 0 0.0 0.0 0.00 0.00 0.00 78 1014.0
20260905151040 72 0 0.0 0.0 0.00 0.00 0.00 78 1014.0
20260905150541 72 0 0.0 0.0 0.00 0.00 0.00 78 1014.1
20260905150104 72 0 0.0 0.0 0.00 0.00 0.00 77 1014.1
20260905145542 72 0 0.0 0.0 0.00 0.00 0.00 80 1014.1
20260905145040 72 0 0.0 2.0 0.00 0.00 0.00 79 1014.0
20260905144555 72 0 0.0 3.0 0.00 0.00 0.00 80 1014.0
20260905144044 72 0 1.0 3.0 0.00 0.00 0.00 79 1014.0
20260905143541 72 46 0.0 3.0 0.00 0.00 0.00 80 1013.9
20260905143058 72 48 1.0 3.0 0.00 0.00 0.00 79 1013.8
20260905142541 72 36 1.0 4.0 0.00 0.00 0.00 78 1013.9
20260905142041 72 38 2.0 5.0 0.00 0.00 0.00 79 1013.8
20260905141554 72 350 2.0 5.0 0.00 0.00 0.00 79 1013.7
20260905141043 72 28 2.0 6.0 0.00 0.00 0.00 79 1013.6
20260905140540 71 5 2.0 6.0 0.00 0.00 0.00 80 1013.6
20260905140104 71 350 3.0 6.0 0.00 0.00 0.00 78 1013.6
20260905135541 71 348 3.0 6.0 0.00 0.00 0.00 79 1013.6
20260905135043 71 345 3.0 6.0 0.00 0.00 0.00 81 1013.5
20260905134556 71 0 2.0 7.0 0.00 0.00 0.00 80 1013.4
20260905134042 71 15 3.0 10.0 0.00 0.00 0.00 80 1013.3
20260905133541 71 15 3.0 10.0 0.00 0.00 0.00 80 1013.3
20260905133055 71 44 5.0 10.0 0.00 0.00 0.00 80 1013.4
20260905132546 72 26 4.0 9.0 0.00 0.00 0.00 80 1013.3
20260905132045 72 39 3.0 6.0 0.00 0.00 0.00 79 1013.3
20260905131558 72 15 2.0 6.0 0.00 0.00 0.00 80 1013.4
20260905131040 72 24 2.0 5.0 0.00 0.00 0.00 81 1013.3
20260905130542 72 50 3.0 8.0 0.00 0.00 0.00 80 1013.3
20260905130051 72 53 3.0 8.0 0.00 0.00 0.00 80 1013.3
20260905125540 72 33 3.0 8.0 0.00 0.00 0.00 80 1013.3
20260905125041 72 40 4.0 9.0 0.00 0.00 0.00 80 1013.3
20260905124601 72 360 4.0 9.0 0.00 0.00 0.00 80 1013.1
20260905124040 72 5 2.0 5.0 0.00 0.00 0.00 82 1013.0
20260905123540 71 346 0.0 6.0 0.00 0.00 0.00 83 1012.9
20260905123058 71 342 1.0 6.0 0.00 0.00 0.00 83 1012.9
20260905122541 71 331 2.0 6.0 0.00 0.00 0.00 84 1012.9
20260905122039 71 344 2.0 6.0 0.00 0.00 0.00 84 1012.8
20260905121556 71 350 2.0 6.0 0.00 0.00 0.00 86 1012.8
20260905121041 70 360 2.0 4.0 0.00 0.00 0.00 88 1012.9
20260905120540 70 351 2.0 4.0 0.00 0.00 0.00 88 1013.0
20260905115537 69 350 0.0 2.0 0.00 0.00 0.00 90 1013.0
20260905115038 69 350 0.0 2.0 0.00 0.00 0.00 91 1013.1
20260905114601 69 350 1.0 3.0 0.00 0.00 0.00 92 1013.0
20260905114040 69 0 1.0 3.0 0.00 0.00 0.00 92 1012.9
20260905113538 69 350 0.0 3.0 0.00 0.00 0.00 92 1012.8
20260905113100 69 0 0.0 3.0 0.00 0.00 0.00 93 1012.9
20260905112538 69 0 0.0 3.0 0.00 0.00 0.00 93 1012.9
20260905112037 68 349 1.0 4.0 0.00 0.00 0.00 93 1013.0
20260905111644 68 350 2.0 4.0 0.00 0.00 0.00 93 1012.9
20260905111040 68 351 3.0 5.0 0.00 0.00 0.00 94 1012.8
20260905110537 68 345 3.0 6.0 0.00 0.00 0.00 94 1012.8
20260905110051 67 350 3.0 6.0 0.00 0.00 0.00 94 1012.8
20260905105540 67 347 3.0 5.0 0.00 0.00 0.00 95 1012.7
20260905105040 67 5 3.0 5.0 0.00 0.00 0.00 95 1012.5
20260905104548 67 330 1.0 4.0 0.00 0.00 0.00 95 1012.3
20260905104038 67 316 1.0 3.0 0.00 0.00 0.00 95 1012.3
20260905103538 67 0 1.0 3.0 0.00 0.00 0.00 95 1012.0
20260905103055 67 0 0.0 2.0 0.00 0.00 0.00 95 1012.0
20260905102538 67 316 1.0 3.0 0.00 0.00 0.00 95 1012.1
20260905102037 66 0 0.0 4.0 0.00 0.00 0.00 95 1011.9
20260905101600 66 0 1.0 5.0 0.00 0.00 0.00 95 1012.0
20260905101041 66 316 3.0 5.0 0.00 0.00 0.00 95 1012.1
20260905100541 65 314 3.0 4.0 0.00 0.00 0.00 94 1011.9
20260905100107 65 312 0.0 2.0 0.00 0.00 0.00 94 1011.7
20260905095540 66 0 0.0 3.0 0.00 0.00 0.00 94 1011.5
20260905095040 66 0 1.0 3.0 0.00 0.00 0.00 94 1011.5
20260905094552 65 312 1.0 3.0 0.00 0.00 0.00 93 1011.4
20260905094040 65 0 0.0 4.0 0.00 0.00 0.00 93 1011.6
20260905093545 66 0 0.0 4.0 0.00 0.00 0.00 93 1011.6
20260905093059 66 312 2.0 4.0 0.00 0.00 0.00 93 1011.6
20260905092538 66 311 1.0 3.0 0.00 0.00 0.00 94 1011.7
20260905092038 66 311 1.0 4.0 0.00 0.00 0.00 93 1011.6
20260905091604 66 311 2.0 4.0 0.00 0.00 0.00 93 1011.6